Colorado Springs, CO

10:04 AM MDT on April 28, 2017 (GMT -0600)
City Of Colorado Springs Municipal

Weather History for KCOS - October, 2012

Change the Weather History Date:

Wednesday, October 17, 2012

  Actual Average Record
Temperature  
Mean Temperature 50 °F 49 °F  
Max Temperature 62 °F 63 °F 86 °F (2016)
Min Temperature 38 °F 35 °F 17 °F (1948)
Degree Days  
Heating Degree Days 15 16  
Month to date heating degree days 241 226  
Since 1 July heating degree days 357 416  
Cooling Degree Days 0 0  
Month to date cooling degree days 0 0  
Year to date cooling degree days 873 454  
Growing Degree Days 2 (Base 50)    
Moisture  
Dew Point 11 °F    
Average Humidity 37    
Maximum Humidity 66    
Minimum Humidity 7    
Precipitation  
Precipitation T in 0.03 in 0.65 in (1994)
Month to date precipitation 0.03 0.48  
Year to date precipitation 7.72 15.46  
Snow  
Snow 0.00 in 0.10 in 1.80 in (1905)
Month to date snowfall T 1.2  
Since 1 July snowfall T 1.4  
Since 1 September snowfall T 1.4  
Snow Depth 0.00 in    
Sea Level Pressure  
Sea Level Pressure 29.75 in    
Wind  
Wind Speed 14 mph (North)    
Max Wind Speed 35 mph    
Max Gust Speed 48 mph    
Visibility 10 miles    
Events      
T = Trace of Precipitation, MM = Missing Value Source: NWS Daily Summary

Daily Weather History Graph

Daily Weather History Graph

Search for Another Location

Airport or City:

Trip Planner

Search our weather history database for the weather conditions in past years. The results will help you decide how hot, cold, wet, or windy it might be!

Date:

Astronomy

Oct. 17, 2012 Rise Set
Actual Time 7:10 AM MDT 6:16 PM MDT
Civil Twilight 6:43 AM MDT 6:43 PM MDT
Nautical Twilight 6:12 AM MDT 7:14 PM MDT
Astronomical Twilight 5:41 AM MDT 7:45 PM MDT
Moon 9:46 AM MDT (10/17) 7:57 PM MDT (10/17)
Length of Visible Light 11h 59m
Length of Day
11h 06m
Waxing Crescent, 7% of the Moon is Illuminated
Oct 17
Waxing Crescent
Oct 21
First Quarter
Oct 29
Full
Nov 6
Last Quarter
Nov 13
New

Hourly Weather History & Observations

Time (MDT) Temp. Windchill Dew Point Humidity Pressure Visibility Wind Dir Wind Speed Gust Speed Precip Events Conditions
12:54 AM 50.0 °F - 39.0 °F 66% 29.58 in 10.0 mi North 24.2 mph 31.1 mph 0.00 in   Mostly Cloudy
1:54 AM 48.0 °F - 37.0 °F 66% 29.58 in 10.0 mi NW 11.5 mph - 0.00 in   Scattered Clouds
2:54 AM 50.0 °F - 36.0 °F 59% 29.56 in 10.0 mi WNW 11.5 mph - N/A   Partly Cloudy
3:54 AM 48.0 °F - 33.1 °F 56% 29.56 in 10.0 mi NNW 11.5 mph - N/A   Clear
4:54 AM 48.0 °F - 32.0 °F 54% 29.56 in 10.0 mi NW 8.1 mph - N/A   Clear
5:54 AM 41.0 °F 35.8 °F 30.0 °F 65% 29.62 in 10.0 mi North 8.1 mph - N/A   Clear
6:54 AM 42.1 °F 35.2 °F 25.0 °F 51% 29.65 in 10.0 mi North 12.7 mph - N/A   Partly Cloudy
7:54 AM 45.0 °F 36.2 °F 16.0 °F 31% 29.70 in 10.0 mi North 24.2 mph 35.7 mph N/A   Partly Cloudy
8:54 AM 48.0 °F - 12.9 °F 24% 29.74 in 10.0 mi North 21.9 mph 26.5 mph N/A   Partly Cloudy
9:54 AM 52.0 °F - 10.0 °F 19% 29.74 in 10.0 mi NW 12.7 mph 23.0 mph N/A   Clear
10:54 AM 55.0 °F - -4.0 °F 9% 29.73 in 10.0 mi NW 25.3 mph 36.8 mph N/A   Clear
11:54 AM 55.9 °F - -4.0 °F 9% 29.72 in 10.0 mi NNW 28.8 mph 39.1 mph N/A   Clear
12:54 PM 59.0 °F - -4.0 °F 8% 29.73 in 10.0 mi NW 18.4 mph 32.2 mph N/A   Clear
1:54 PM 61.0 °F - -4.0 °F 7% 29.71 in 10.0 mi NW 18.4 mph 33.4 mph N/A   Clear
2:16 PM 60.8 °F - 1.4 °F 9% 29.86 in 10.0 mi NNE 17.3 mph 26.5 mph N/A   Clear
2:54 PM 60.1 °F - 1.9 °F 10% 29.72 in 10.0 mi North 13.8 mph 24.2 mph N/A   Clear
3:54 PM 59.0 °F - 1.0 °F 10% 29.73 in 10.0 mi NNE 18.4 mph - N/A   Clear
4:10 PM 62.6 °F - -2.2 °F 7% 29.86 in 10.0 mi NNW 25.3 mph 34.5 mph N/A   Clear
4:54 PM 59.0 °F - 1.9 °F 10% 29.73 in 10.0 mi North 18.4 mph 25.3 mph N/A   Clear
5:03 PM 57.2 °F - 1.4 °F 10% 29.87 in 10.0 mi NNE 19.6 mph 25.3 mph N/A   Clear
5:54 PM 55.0 °F - 1.9 °F 12% 29.80 in 10.0 mi NNE 19.6 mph - N/A   Clear
6:54 PM 48.9 °F - 3.9 °F 16% 29.86 in 10.0 mi North 8.1 mph - N/A   Clear
7:54 PM 46.9 °F - 3.9 °F 17% 29.88 in 10.0 mi North 10.4 mph - N/A   Clear
8:54 PM 43.0 °F 36.8 °F 3.9 °F 20% 29.91 in 8.0 mi SSE 11.5 mph - N/A   Clear
9:54 PM 43.0 °F 37.2 °F 3.9 °F 20% 29.92 in 10.0 mi ENE 10.4 mph - N/A   Clear
10:54 PM 42.1 °F 37.1 °F 3.9 °F 21% 29.93 in 10.0 mi ENE 8.1 mph - N/A   Clear
11:54 PM 39.9 °F 33.9 °F 3.9 °F 22% 29.95 in 10.0 mi East 9.2 mph - N/A   Clear